Location: Ingoldesthorpe
(52.8667°N, 0.5167°E)
Time: 18:35:57
(UTC+00:00)

ARIANE 5 R/B - Pass Details

Date: 19 May 2025
Orbit: 615 x 647 km, 98.0° (Epoch: 20 June)

Event Time Altitude Azimuth Distance (km) Brightness Sun altitude
Exits shadow 21:23:52 - 108° (ESE) 2,126 4.8 -10.2°
Reaches altitude 10° 21:24:19 10° 104° (ESE) 1,989 4.7 -10.2°
Maximum altitude 21:27:26 20° 58° (ENE) 1,458 4.4 -10.5°
Drops below altitude 10° 21:30:35 10° 11° (NNE) 2,011 5.9 -10.8°
Sets 21:33:15 0° 355° (N) 2,929 7.2 -11.0°
